Weather History for Fayetteville, AR

Change the Weather History Date:

Saturday, January 19, 2013

  Actual Average Record
Temperature  
Mean Temperature 46 °F 36 °F  
Max Temperature 61 °F 46 °F 76 °F (1952)
Min Temperature 31 °F 25 °F -10 °F (1984)
Degree Days  
Heating Degree Days 19 29  
Month to date heating degree days 551 569  
Since 1 July heating degree days 2069 2252  
Moisture  
Dew Point 30 °F    
Average Humidity 63    
Maximum Humidity 89    
Minimum Humidity 36    
Precipitation  
Precipitation 0.00 in 0.08 in 0.22 in (1958)
Month to date precipitation 0.34 1.77  
Year to date precipitation 0.34 1.77  
Sea Level Pressure  
Sea Level Pressure 30.18 in    
Wind  
Wind Speed 8 mph (SSW)    
Max Wind Speed 20 mph    
Max Gust Speed 24 mph    
Visibility 10 miles    
Events      
T = Trace of Precipitation, MM = Missing Value Source: NWS Daily Summary

Daily Weather History Graph

Daily Weather History Graph

Search for Another Location

Airport:

Trip Planner

Search our weather history database for the weather conditions in past years. The results will help you decide how hot, cold, wet, or windy it might be!

Date:

Astronomy

Jan. 19, 2013 Rise Set
Actual Time 7:25 AM CST 5:30 PM CST
Civil Twilight 6:57 AM CST 5:58 PM CST
Nautical Twilight 6:26 AM CST 6:29 PM CST
Astronomical Twilight 5:55 AM CST 6:59 PM CST
Moon 11:54 AM CST (1/19) 1:02 AM CST (1/19)
Length of Visible Light 11h 00m
Length of Day
10h 05m
First Quarter, 57% of the Moon is Illuminated
Jan 19
First Quarter
Jan 26
Full
Feb 3
Last Quarter
Feb 10
New
Feb 17
First Quarter

Hourly Weather History & Observations

Time (CST) Temp. Windchill Dew Point Humidity Pressure Visibility Wind Dir Wind Speed Gust Speed Precip Events Conditions
12:53 AM 41.0 °F 35.8 °F 24.1 °F 51% 30.22 in 10.0 mi SSW 8.1 mph - N/A   Clear
1:53 AM 41.0 °F 35.8 °F 24.1 °F 51% 30.22 in 10.0 mi SSW 8.1 mph - N/A   Clear
2:53 AM 41.0 °F 35.8 °F 25.0 °F 53% 30.21 in 10.0 mi SSW 8.1 mph - N/A   Clear
3:53 AM 42.1 °F 36.6 °F 26.1 °F 53% 30.19 in 10.0 mi SSW 9.2 mph - N/A   Clear
4:53 AM 42.1 °F 35.7 °F 27.0 °F 55% 30.18 in 10.0 mi SSW 11.5 mph 16.1 mph N/A   Clear
5:53 AM 42.1 °F 39.2 °F 28.0 °F 58% 30.19 in 10.0 mi SSW 4.6 mph - N/A   Clear
6:53 AM 42.1 °F 35.7 °F 28.0 °F 58% 30.19 in 10.0 mi South 11.5 mph - N/A   Clear
7:53 AM 43.0 °F 37.2 °F 28.9 °F 58% 30.19 in 10.0 mi SSW 10.4 mph - N/A   Clear
8:53 AM 48.0 °F - 30.9 °F 52% 30.19 in 10.0 mi SSW 10.4 mph 17.3 mph N/A   Clear
9:53 AM 52.0 °F - 32.0 °F 47% 30.20 in 10.0 mi South 13.8 mph - N/A   Clear
10:53 AM 54.0 °F - 32.0 °F 43% 30.20 in 10.0 mi SSW 11.5 mph - N/A   Clear
11:53 AM 57.0 °F - 33.1 °F 40% 30.17 in 10.0 mi SW 16.1 mph - N/A   Clear
12:53 PM 59.0 °F - 33.1 °F 38% 30.14 in 10.0 mi SSW 16.1 mph 19.6 mph N/A   Clear
1:53 PM 60.1 °F - 34.0 °F 38% 30.11 in 10.0 mi SSW 15.0 mph 20.7 mph N/A   Clear
2:53 PM 61.0 °F - 34.0 °F 36% 30.11 in 10.0 mi SSW 11.5 mph 21.9 mph N/A   Clear
3:53 PM 60.1 °F - 34.0 °F 38% 30.09 in 10.0 mi South 12.7 mph 19.6 mph N/A   Clear
4:53 PM 59.0 °F - 34.0 °F 39% 30.11 in 10.0 mi SSW 6.9 mph - N/A   Clear
5:53 PM 54.0 °F - 33.1 °F 45% 30.13 in 10.0 mi SW 4.6 mph - N/A   Clear
6:53 PM 48.9 °F - 33.1 °F 54% 30.15 in 10.0 mi Calm Calm - N/A   Clear
7:53 PM 39.9 °F - 32.0 °F 73% 30.19 in 10.0 mi Calm Calm - N/A   Clear
8:53 PM 36.0 °F 33.3 °F 30.9 °F 82% 30.21 in 10.0 mi South 3.5 mph - N/A   Clear
9:53 PM 35.1 °F - 30.0 °F 82% 30.21 in 10.0 mi Calm Calm - N/A   Clear
10:53 PM 33.8 °F 30.8 °F 30.2 °F 87% 30.21 in 10.0 mi South 3.5 mph - N/A   Clear
11:53 PM 32.0 °F - 28.9 °F 88% 30.22 in 10.0 mi Calm Calm - N/A   Clear